Nucla Hopkins Field Airport, CO

12:39 PM MDT on March 27, 2017 (GMT -0600)
Nucla Hopkins Field Airport

Weather History for KAIB - June, 2014

Change the Weather History Date:

Friday, June 27, 2014

  Actual Average (KTEX) Record (KTEX)
Temperature  
Mean Temperature 72 °F -  
Max Temperature 82 °F 71 °F 84 °F (2013)
Min Temperature 62 °F 45 °F 39 °F (2003)
Cooling Degree Days 7    
Growing Degree Days 22 (Base 50)    
Moisture  
Dew Point 31 °F    
Average Humidity 23    
Maximum Humidity 45    
Minimum Humidity 14    
Precipitation  
Precipitation 0.00 in - - ()
Sea Level Pressure  
Sea Level Pressure 29.96 in    
Wind  
Wind Speed 10 mph (West)    
Max Wind Speed 22 mph    
Max Gust Speed 31 mph    
Visibility 10 miles    
Events Rain    
Averages and records for this station are not official NWS values.
T = Trace of Precipitation, MM = Missing Value Source: NWS Daily Summary

Daily Weather History Graph

Daily Weather History Graph

Search for Another Location

Airport or City:

Trip Planner

Search our weather history database for the weather conditions in past years. The results will help you decide how hot, cold, wet, or windy it might be!

Date:

Astronomy

Jun. 27, 2014 Rise Set
Actual Time 5:53 AM MDT 8:41 PM MDT
Civil Twilight 5:21 AM MDT 9:13 PM MDT
Nautical Twilight 4:41 AM MDT 9:52 PM MDT
Astronomical Twilight 3:56 AM MDT 10:37 PM MDT
Moon 6:24 AM MDT 8:50 PM MDT
Length of Visible Light 15h 51m
Length of Day
14h 48m
New Moon, 0% of the Moon is Illuminated
Jun 27
New Moon
Jul 5
First Quarter
Jul 12
Full
Jul 18
Last Quarter
Jul 26
New

Hourly Weather History & Observations

Time (MDT) Temp. Dew Point Humidity Pressure Visibility Wind Dir Wind Speed Gust Speed Precip Events Conditions
12:15 AM 73.4 °F 21.2 °F 14% 29.94 in 10.0 mi West 10.4 mph - N/A   Clear
12:35 AM 73.4 °F 21.2 °F 14% 29.93 in 10.0 mi WNW 13.8 mph 18.4 mph N/A   Scattered Clouds
12:55 AM 73.4 °F 23.0 °F 15% 29.94 in 10.0 mi WSW 15.0 mph 21.9 mph N/A   Scattered Clouds
1:15 AM 71.6 °F 24.8 °F 17% 29.95 in 10.0 mi SW 11.5 mph 29.9 mph N/A   Scattered Clouds
1:35 AM 69.8 °F 26.6 °F 20% 29.94 in 10.0 mi West 10.4 mph - N/A   Scattered Clouds
1:55 AM 69.8 °F 26.6 °F 20% 29.94 in 10.0 mi WSW 6.9 mph - N/A   Mostly Cloudy
2:35 AM 69.8 °F 28.4 °F 21% 29.95 in 10.0 mi WSW 6.9 mph - N/A   Mostly Cloudy
2:55 AM 69.8 °F 28.4 °F 21% 29.95 in 10.0 mi West 12.7 mph 19.6 mph N/A   Overcast
3:15 AM 68.0 °F 30.2 °F 24% 29.95 in 10.0 mi West 10.4 mph - N/A   Scattered Clouds
3:35 AM 68.0 °F 32.0 °F 26% 29.95 in 10.0 mi WNW 10.4 mph - N/A   Scattered Clouds
3:55 AM 64.4 °F 32.0 °F 30% 29.95 in 10.0 mi NNW 5.8 mph - N/A   Scattered Clouds
4:15 AM 64.4 °F 32.0 °F 30% 29.96 in 10.0 mi NW 5.8 mph - N/A   Mostly Cloudy
4:35 AM 62.6 °F 32.0 °F 32% 29.97 in 10.0 mi West 4.6 mph - N/A   Scattered Clouds
4:55 AM 62.6 °F 32.0 °F 32% 29.97 in 10.0 mi Calm Calm - N/A   Scattered Clouds
5:35 AM 64.4 °F 33.8 °F 32% 29.98 in 10.0 mi Calm Calm - N/A   Overcast
5:55 AM 64.4 °F 33.8 °F 32% 29.98 in 10.0 mi Calm Calm - N/A   Overcast
6:15 AM 64.4 °F 33.8 °F 32% 29.98 in 10.0 mi South 6.9 mph - N/A   Mostly Cloudy
6:35 AM 64.4 °F 33.8 °F 32% 29.98 in 10.0 mi SSW 5.8 mph - N/A   Overcast
6:55 AM 62.6 °F 33.8 °F 34% 29.99 in 10.0 mi WSW 5.8 mph - N/A   Overcast
7:15 AM 62.6 °F 41.0 °F 45% 30.00 in 10.0 mi South 3.5 mph - N/A Rain Light Rain
7:35 AM 64.4 °F 35.6 °F 34% 30.00 in 10.0 mi SW 3.5 mph - N/A   Mostly Cloudy
7:55 AM 66.2 °F 35.6 °F 32% 30.00 in 10.0 mi SSW 5.8 mph - N/A   Scattered Clouds
8:15 AM 68.0 °F 35.6 °F 30% 30.00 in 10.0 mi SSW 10.4 mph - N/A   Clear
8:35 AM 68.0 °F 33.8 °F 28% 30.00 in 10.0 mi SSW 6.9 mph - N/A   Clear
8:55 AM 69.8 °F 33.8 °F 27% 30.00 in 10.0 mi SW 5.8 mph - N/A   Clear
9:15 AM 69.8 °F 33.8 °F 27% 30.00 in 10.0 mi SW 8.1 mph - N/A   Clear
9:35 AM 71.6 °F 33.8 °F 25% 30.00 in 10.0 mi West 3.5 mph - N/A   Clear
9:55 AM 71.6 °F 33.8 °F 25% 30.00 in 10.0 mi SW 8.1 mph - N/A   Clear
10:15 AM 71.6 °F 32.0 °F 23% 30.00 in 10.0 mi SW 6.9 mph 16.1 mph N/A   Clear
10:35 AM 73.4 °F 32.0 °F 22% 29.99 in 10.0 mi West 3.5 mph - N/A   Clear
10:55 AM 73.4 °F 30.2 °F 20% 29.98 in 10.0 mi WSW 12.7 mph 17.3 mph N/A   Clear
11:15 AM 75.2 °F 32.0 °F 21% 29.98 in 10.0 mi West 6.9 mph 19.6 mph N/A   Clear
11:35 AM 77.0 °F 32.0 °F 19% 29.98 in 10.0 mi WSW 12.7 mph 25.3 mph N/A   Scattered Clouds
11:55 AM 77.0 °F 32.0 °F 19% 29.98 in 10.0 mi West 18.4 mph 28.8 mph N/A   Clear
12:15 PM 77.0 °F 32.0 °F 19% 29.98 in 10.0 mi West 19.6 mph 25.3 mph N/A   Scattered Clouds
12:35 PM 77.0 °F 32.0 °F 19% 29.98 in 10.0 mi West 17.3 mph 25.3 mph N/A   Scattered Clouds
12:55 PM 78.8 °F 30.2 °F 17% 29.98 in 10.0 mi West 21.9 mph 28.8 mph N/A   Clear
1:15 PM 78.8 °F 30.2 °F 17% 29.97 in 10.0 mi West 18.4 mph 29.9 mph N/A   Clear
1:35 PM 78.8 °F 30.2 °F 17% 29.97 in 10.0 mi West 21.9 mph 29.9 mph N/A   Clear
1:55 PM 80.6 °F 30.2 °F 16% 29.97 in 10.0 mi WNW 16.1 mph 26.5 mph N/A   Clear
2:35 PM 80.6 °F 30.2 °F 16% 29.96 in 10.0 mi West 13.8 mph 24.2 mph N/A   Scattered Clouds
2:55 PM 78.8 °F 30.2 °F 17% 29.95 in 10.0 mi WNW 18.4 mph 27.6 mph N/A   Scattered Clouds
3:15 PM 82.4 °F 28.4 °F 14% 29.95 in 10.0 mi WNW 17.3 mph 27.6 mph N/A   Scattered Clouds
3:35 PM 80.6 °F 28.4 °F 15% 29.94 in 10.0 mi WNW 16.1 mph 31.1 mph N/A   Clear
3:55 PM 82.4 °F 28.4 °F 14% 29.94 in 10.0 mi WNW 19.6 mph 28.8 mph N/A   Clear
4:15 PM 80.6 °F 28.4 °F 15% 29.94 in 10.0 mi West 13.8 mph 28.8 mph N/A   Scattered Clouds
4:35 PM 80.6 °F 30.2 °F 16% 29.94 in 10.0 mi WNW 10.4 mph 31.1 mph N/A   Mostly Cloudy
4:55 PM 80.6 °F 30.2 °F 16% 29.94 in 10.0 mi WNW 12.7 mph 24.2 mph N/A   Scattered Clouds
5:15 PM 78.8 °F 30.2 °F 17% 29.94 in 10.0 mi WNW 10.4 mph 19.6 mph N/A   Scattered Clouds
5:35 PM 78.8 °F 30.2 °F 17% 29.92 in 10.0 mi West 13.8 mph 20.7 mph N/A   Scattered Clouds
5:55 PM 78.8 °F 30.2 °F 17% 29.92 in 10.0 mi WNW 17.3 mph 27.6 mph N/A   Scattered Clouds
6:15 PM 80.6 °F 30.2 °F 16% 29.92 in 10.0 mi NW 11.5 mph - N/A   Scattered Clouds
6:35 PM 80.6 °F 32.0 °F 17% 29.92 in 10.0 mi NW 11.5 mph 24.2 mph N/A   Clear
6:55 PM 80.6 °F 32.0 °F 17% 29.92 in 10.0 mi WNW 16.1 mph 25.3 mph N/A   Clear
7:15 PM 78.8 °F 32.0 °F 18% 29.93 in 10.0 mi West 17.3 mph - N/A   Scattered Clouds
7:35 PM 78.8 °F 32.0 °F 18% 29.94 in 10.0 mi WNW 10.4 mph - N/A   Clear
7:55 PM 77.0 °F 32.0 °F 19% 29.94 in 10.0 mi WNW 10.4 mph - N/A   Clear
8:15 PM 75.2 °F 32.0 °F 21% 29.94 in 10.0 mi NW 9.2 mph - N/A   Clear
8:35 PM 73.4 °F 32.0 °F 22% 29.94 in 10.0 mi NW 5.8 mph - N/A   Clear
8:55 PM 71.6 °F 32.0 °F 23% 29.94 in 10.0 mi NW 5.8 mph - N/A   Clear
9:15 PM 69.8 °F 32.0 °F 25% 29.95 in 10.0 mi NNW 3.5 mph - N/A   Clear
9:35 PM 69.8 °F 33.8 °F 27% 29.96 in 10.0 mi NNW 3.5 mph - N/A   Clear
9:55 PM 69.8 °F 32.0 °F 25% 29.96 in 10.0 mi Calm Calm - N/A   Clear
10:15 PM 71.6 °F 32.0 °F 23% 29.97 in 10.0 mi Calm Calm - N/A   Clear
10:35 PM 69.8 °F 32.0 °F 25% 29.97 in 10.0 mi Calm Calm - N/A   Mostly Cloudy
10:55 PM 66.2 °F 33.8 °F 30% 29.98 in 10.0 mi ESE 8.1 mph - N/A   Mostly Cloudy
11:15 PM 64.4 °F 37.4 °F 37% 29.98 in 10.0 mi ESE 9.2 mph - N/A   Scattered Clouds
11:35 PM 64.4 °F 37.4 °F 37% 29.99 in 10.0 mi East 10.4 mph - N/A   Mostly Cloudy
11:55 PM 64.4 °F 37.4 °F 37% 30.00 in 10.0 mi ESE 9.2 mph - N/A   Mostly Cloudy